Location: Besigheim
(48.9980°N, 9.1427°E)
Time: 10:46:14
(UTC+00:00)

Daily predictions for brighter satellites

Satellite Brightness Start Highest point End
(mag) Time Altitude Azimuth Time Altitude Azimuth Time Altitude Azimuth
Okean-O 2.7 19:44:10 10° SSE 19:48:34 88° WSW 19:53:00 10° NNW
Cosmos 1634 Rocket 4.1 19:42:38 10° N 19:48:55 69° ENE 19:55:07 10° SSE
SL-16 R/B 2.7 19:44:32 10° SW 19:50:11 67° WNW 19:55:52 10° NNE
Cosmos 1603 4.5 19:48:22 10° SSE 19:53:17 32° ESE 19:58:17 10° NE
SPOT 5 2.7 19:49:06 10° SSE 19:53:36 69° ENE 19:57:58 10° N
Cosmos 2369 Rocket 2.5 19:50:17 10° NNW 19:55:51 67° WSW 20:01:24 10° SSE
Cosmos 1656 Rocket 4.4 19:50:51 10° NW 19:56:08 52° WSW 20:01:28 10° S
Cosmos 2263 4.3 19:51:12 10° NNW 19:56:55 85° WSW 20:02:39 10° SSE
Cosmos 1048 Rocket 4.2 19:52:54 10° S 19:57:51 50° ESE 20:02:47 10° NNE
Meteor 1-11 Rocket 4.3 19:53:49 10° N 19:59:14 44° ENE 20:04:45 10° SE
Meteor 1-14 Rocket 4.4 19:55:24 10° N 20:01:19 83° ENE 20:07:17 10° SSE
USA 229 DEB 4.3 20:00:31 10° NW 20:07:51 65° SW 20:15:47 10° SSE
USA 229 4.3 20:00:36 10° NW 20:07:58 65° SW 20:15:55 10° SSE
Meteor 2-6 Rocket 4.2 20:02:29 10° S 20:08:02 77° E 20:13:29 10° NNE
Cosmos 1331 Rocket 4.1 20:03:44 10° NNW 20:08:59 70° ENE 20:14:10 10° SSE
Landsat 4 4.0 20:08:05 10° SE 20:11:25 47° ENE 20:14:47 10° N
Cosmos 1536 3.1 20:10:27 10° N 20:14:16 49° ENE 20:17:51 11° SSE
Cosmos 1500 Rocket 4.2 20:10:36 10° N 20:14:39 38° ENE 20:18:20 12° SE
Cosmos 1110 Rocket 4.1 20:11:34 10° NNW 20:16:55 86° ENE 20:22:09 10° SSE
Cosmos 1726 1.6 20:15:25 10° N 20:18:33 75° E 20:21:30 11° SSE
USA 306 2.7 20:17:38 10° WNW 20:21:23 66° SSW 20:24:42 14° SE
USA 59 Rocket 1.0 20:18:20 10° NNW 20:21:48 37° NE 20:26:23 10° ESE
Lacrosse 4 Rocket 3.2 20:19:20 10° N 20:22:30 21° NE 20:25:42 10° E
NOSS 2-1 (E) 4.4 20:20:23 10° NNW 20:23:53 39° NE 20:28:30 10° ESE
Cosmos 1805 Rocket 4.2 20:21:01 10° N 20:25:12 41° ENE 20:28:44 14° SE
BREEZE-M DEB (TANK) 4.4 20:13:39 10° SSW 20:26:41 35° SSE 20:30:40 10° E
Cosmos 1733 3.9 20:23:36 10° N 20:26:50 33° ENE 20:29:15 15° SE
Cosmos 1943 3.2 20:21:24 10° SSW 20:27:05 83° ESE 20:32:47 10° NNE
IRS-1C Rocket 4.4 20:22:08 10° S 20:27:23 68° WSW 20:32:39 10° NNW
Okean 3 Rocket 3.8 20:24:01 10° NNW 20:28:24 69° W 20:32:43 10° S
Cosmos 1842 Rocket 3.6 20:24:02 10° S 20:28:29 88° WNW 20:32:55 10° N
Spot 2 Rocket 3.5 20:25:05 11° SSE 20:29:54 75° ENE 20:34:57 10° NNW
Resurs 01 Rocket 4.2 20:27:53 10° SW 20:30:50 17° W 20:33:48 10° NW
ISS -2.5 20:28:49 10° W 20:31:47 29° SW 20:33:56 15° SSE
ARGOS Delta rocket 4.0 20:27:35 10° S 20:32:36 82° W 20:37:21 10° NNW
Landsat 5 4.2 20:32:38 10° NE 20:35:58 29° E 20:38:13 16° SSE
NOSS 2-1 (D) 4.0 20:32:56 10° NNW 20:36:32 49° NE 20:40:43 13° ESE
Cosmos 1340 3.0 20:36:40 10° N 20:39:56 41° ENE 20:42:01 19° SE
SPOT 3 Rocket 3.5 20:36:08 13° SSE 20:40:44 81° ENE 20:45:55 10° NNW
Okean O Rocket 4.2 20:38:17 10° SW 20:41:04 16° W 20:43:52 10° NW
Sich 1 3.2 20:37:15 10° N 20:41:35 60° ENE 20:44:54 17° SSE
Meteor 2-9 Rocket 4.3 20:39:32 10° N 20:45:25 78° ENE 20:50:24 15° SSE
Meteor 1-27 Rocket 3.8 20:40:57 10° S 20:46:20 60° E 20:51:49 10° NNE
USA 281 3.3 20:43:30 15° SE 20:49:06 71° ENE 20:55:41 10° NNW
Ariane Rocket 3.1 20:48:21 13° S 20:52:52 74° WSW 20:57:58 10° NNW
MetOp-A 4.0 20:53:25 19° SSE 20:56:44 63° ENE 21:01:39 10° N
GEOS 3 Rocket 4.0 20:53:08 10° NE 20:58:01 41° ESE 21:02:48 10° SSW
Terra 2.5 20:59:36 12° S 21:03:52 49° W 21:08:28 10° NNW
Cosmos 1340 Rocket 2.7 21:03:13 17° S 21:06:16 75° E 21:10:15 10° NNE
MOS 1 Rocket 3.8 21:02:03 15° S 21:06:19 70° W 21:11:41 10° NNW
Cosmos 1743 Rocket 3.6 21:03:25 10° NNW 21:07:51 82° W 21:10:56 20° S
USA 234 4.4 21:04:08 10° ENE 21:10:17 44° N 21:16:25 10° WNW
Cosmos 1092 Rocket 4.4 21:08:36 19° SSE 21:12:46 46° E 21:18:45 10° NNE
NOSS 2-1 (C) 3.5 21:09:17 10° NW 21:13:05 89° SW 21:16:11 23° SE
Lacrosse 5 rocket 3.5 21:10:01 10° WNW 21:13:40 27° N 21:17:15 10° ENE
ARIANE 5 R/B 3.6 21:12:44 19° ESE 21:15:08 34° ENE 21:19:02 10° N
ERS-1 Rocket 4.3 21:12:43 10° SSW 21:17:17 34° W 21:21:52 10° NNW
Spot 1 4.1 21:20:32 10° NNE 21:24:37 77° WNW 21:28:04 15° SSW
Cosmos 1626 2.7 21:24:36 30° ESE 21:25:10 32° E 21:28:06 10° NNE
SL-8 R/B 3.6 21:21:20 10° W 21:26:07 85° S 21:30:54 10° E
Nadezhda 4 Rocket 4.1 21:21:16 12° SSW 21:27:06 80° W 21:33:24 10° N
Cosmos 614 Rocket 3.9 21:25:40 16° S 21:29:46 72° ESE 21:34:59 10° NNE
Cosmos 1833 Rocket 3.7 21:35:25 23° SE 21:37:14 28° ESE 21:41:56 10° NE
Cosmos 1151 Rocket 3.3 21:37:09 18° SSW 21:40:19 64° WNW 21:44:39 10° N
Cosmos 1975 2.7 21:37:30 10° NNW 21:41:28 81° W 21:43:09 33° S
Cosmos 1328 Rocket 3.5 21:45:12 32° SSE 21:47:04 65° E 21:51:21 10° NNE
Cosmos 1992 Rocket 4.1 21:45:18 10° NNW 21:50:31 72° WSW 21:53:10 29° S
Cosmos 1515 Rocket 4.3 21:51:40 29° SE 21:52:54 36° E 21:56:51 10° NNE
Cosmos 1656 3.6 21:49:50 10° NNW 21:55:19 77° WSW 21:58:06 30° SSE
Cosmos 1766 3.2 21:54:30 10° N 21:58:15 67° ENE 21:59:18 43° SE
Cosmos 1805 4.3 21:56:33 10° NNW 21:59:59 35° W 22:01:33 24° SW
H-2A R/B 4.3 21:59:08 10° ENE 22:00:47 12° E 22:01:34 11° E
Lacrosse 4 Rocket 1.5 21:57:05 10° NW 22:01:07 61° WSW 22:02:26 39° S
Cosmos 1470 Rocket 3.6 21:58:02 10° N 22:02:31 74° E 22:04:11 37° SSE
H-2A R/B 2.6 22:02:16 36° SE 22:03:48 64° ENE 22:08:03 10° N
Cosmos 2026 Rocket 4.1 22:02:10 21° SSW 22:06:36 76° W 22:12:52 10° N
Cosmos 1470 3.4 22:04:55 10° N 22:08:27 40° ENE 22:09:19 34° ESE
Cosmos 1633 Rocket 3.3 22:05:17 10° NNW 22:09:40 61° W 22:11:28 33° SSW
USA 59 Rocket 1.2 22:07:44 10° WNW 22:11:30 35° SW 22:13:07 28° SSW
Cosmos 1666 Rocket 4.2 22:07:34 10° NNW 22:11:43 47° W 22:13:32 29° SSW
NOSS 3-3 (A) 3.7 22:08:04 17° SSW 22:12:25 77° SE 22:18:49 10° NE
Orbus 7S? 3.5 22:13:47 43° SSE 22:14:18 46° SE 22:17:13 10° ENE
USA 267 4.3 22:10:08 10° ENE 22:15:08 23° SE 22:15:41 23° SE
Cosmos 1140 Rocket 3.9 22:19:18 34° SSE 22:20:59 46° ESE 22:25:58 10° NNE
CZ-2C R/B 3.8 22:16:56 10° N 22:21:26 68° WNW 22:23:38 29° SSW
Cosmos 44 Rocket 3.3 22:18:06 10° NW 22:23:05 78° NE 22:25:15 33° SE
Cosmos 1818 3.7 22:21:17 13° SW 22:26:12 79° NW 22:31:43 10° NE
Cosmos 1933 Rocket 3.6 22:23:17 10° N 22:27:39 71° E 22:29:00 43° SSE
ALOS 2 2.8 22:26:21 37° SE 22:27:53 60° ENE 22:32:14 10° N
NOSS 3-4 (A) 4.0 22:21:37 10° NW 22:28:20 71° NE 22:34:26 18° SE
SAR-Lupe-3 4.4 22:27:46 59° SSE 22:28:21 81° ENE 22:31:53 10° NNW
NOSS 3-4 (C) 4.0 22:21:43 10° NW 22:28:26 71° NE 22:34:34 17° SE
S3M 4.3 22:22:12 10° N 22:28:33 60° ENE 22:31:50 29° SE
BREEZE-M DEB (TANK) 3.4 22:31:06 45° SE 22:31:06 45° SE 22:37:07 10° ENE
Meteor 2-12 Rocket 4.4 22:29:07 30° S 22:32:21 89° E 22:38:33 10° N
Cosmos 1697 Rocket 2.6 22:27:15 10° NNW 22:32:55 90° ENE 22:35:28 34° SSE
GEOS 3 Rocket 4.5 22:31:06 10° NNE 22:36:06 49° NW 22:41:01 10° WSW
Cosmos 1553 Rocket 4.0 22:30:53 10° NNW 22:36:57 70° W 22:39:56 31° S
Cosmos 1674 2.3 22:37:26 63° SSW 22:37:55 82° W 22:41:26 10° N
Spot 2 4.3 22:37:38 40° SSE 22:39:21 89° ENE 22:44:19 10° NNW
Cosmos 1607 4.1 22:37:14 30° S 22:40:27 62° ESE 22:46:52 10° NE
Cosmos 1980 Rocket 2.7 22:35:38 10° NNW 22:41:15 56° NE 22:44:37 24° SE
NOSS 3-3 (C) 4.0 22:38:07 13° SW 22:43:10 76° NW 22:49:45 10° NE
Cosmos 2285 Rocket 4.1 22:44:29 33° S 22:47:19 64° ESE 22:53:37 10° NNE
Cosmos 407 Rocket 3.7 22:49:43 39° SSE 22:51:26 56° ESE 22:56:34 10° NNE
ARIANE 5 R/B 3.9 22:50:12 24° SW 22:51:34 28° W 22:55:19 10° NW
USA 234 3.8 22:46:19 10° E 22:52:43 58° NNE 22:59:06 10° WNW
Lacrosse 5 rocket 2.6 22:48:50 10° NW 22:52:50 41° NNE 22:56:41 10° E
Cosmos 1763 Rocket 4.0 22:47:53 10° NNW 22:53:07 55° ENE 22:55:49 27° SE
Cosmos 1908 2.8 22:50:22 10° N 22:53:57 87° W 22:54:20 70° S
Cosmos 1626 4.2 22:57:25 13° W 22:58:49 16° WNW 23:00:54 10° NNW
Cosmos 2369 4.1 22:53:40 10° NNW 22:59:20 59° ENE 23:02:44 24° SE
Cosmos 540 Rocket 4.2 22:57:44 10° NNW 23:02:45 48° ENE 23:05:34 24° SE
Cosmos 2251 Rocket 3.6 23:01:47 40° S 23:03:33 64° ESE 23:08:47 10° NNE
COSMOS 2406 4.1 23:02:30 29° SE 23:04:09 34° ESE 23:09:17 10° NE
Meteor 1-13 Rocket 4.3 23:04:59 35° S 23:07:38 87° E 23:13:32 10° NNE
Cosmos 1758 3.9 23:04:23 10° N 23:08:05 45° ENE 23:08:57 38° ESE
SL-8 R/B 3.6 23:03:46 10° W 23:08:28 63° SSW 23:10:28 33° SE
Cosmos 1707 3.0 23:09:21 44° WSW 23:10:01 51° WNW 23:13:36 10° N
BREEZE-M DEB (TANK) 4.3 23:09:23 10° W 23:14:08 23° ESE 23:17:06 10° ESE
Cosmos 1441 Rocket 2.9 23:10:38 10° NNW 23:14:13 73° W 23:14:30 68° SW
Cosmos 2266 Rocket 4.0 23:12:28 33° SSW 23:15:26 79° W 23:21:46 10° N
SL-16 R/B 3.8 23:10:25 10° NNW 23:15:27 31° NE 23:20:26 10° ESE
Cosmos 1842 4.3 23:15:46 28° WSW 23:16:46 33° WNW 23:20:09 10° N
Cosmos 1655 Rocket 4.0 23:15:56 34° S 23:18:52 81° E 23:25:18 10° N
Cosmos 1833 Rocket 3.2 23:17:04 20° SW 23:20:50 54° NW 23:26:22 10° NNE
Cosmos 883 Rocket 4.5 23:15:26 10° NNW 23:21:41 79° W 23:24:33 35° S
Cosmos 2082 Rocket 2.4 23:23:06 37° S 23:25:08 57° ESE 23:30:44 10° NE
CZ-2C R/B 4.0 23:27:24 32° SSE 23:29:43 68° E 23:49:21 10° N
Cosmos 1300 2.5 23:26:52 10° N 23:30:27 73° E 23:30:52 63° SE
Meteor 1-22 Rocket 4.2 23:26:38 10° NNW 23:31:55 65° W 23:33:54 38° SSW
Cosmos 2228 Rocket 3.1 23:31:44 47° SSE 23:32:56 72° E 23:37:27 10° NNE
Cosmos 2360 Rocket 4.3 23:28:34 10° N 23:33:08 24° NE 23:37:40 10° E
Meteor 1-15 Rocket 4.4 23:30:35 10° NNW 23:36:09 60° W 23:38:17 36° SSW
H-2A R/B 2.0 23:32:39 10° NNE 23:37:07 86° WNW 23:38:23 47° SSW
Cosmos 1733 Rocket 3.0 23:34:25 10° N 23:38:47 84° E 23:39:58 48° SSE
Cosmos 1356 Rocket 3.8 23:38:18 42° SE 23:39:09 50° E 23:43:09 10° NNE
Helios 1A Rocket 4.3 23:39:28 20° ESE 23:41:19 30° ENE 23:44:43 10° N
Cosmos 1869 Rocket 4.5 23:37:32 10° NNW 23:41:30 35° W 23:42:30 31° WSW
Meteor 1-21 4.3 23:41:47 35° S 23:44:10 68° E 23:49:54 10° NNE
Cosmos 1400 Rocket 3.0 23:54:09 47° SW 23:55:03 62° WNW 23:59:01 10° N
GP-B 3.6 23:51:17 10° N 23:55:32 49° W 23:56:49 37° SW
